Newton, KS

6:29 AM CST on November 20, 2019 (GMT -0600)
Newton City County

Weather History for KEWK - August, 2019

Change the Weather History Date:

Tuesday, August 20, 2019

  Actual Average Record
Temperature  
Mean Temperature 86 °F -  
Max Temperature 93 °F 87 °F 105 °F (2001)
Min Temperature 78 °F 65 °F 53 °F (2004)
Cooling Degree Days 20    
Growing Degree Days 36 (Base 50)    
Moisture  
Dew Point 73 °F    
Average Humidity 68    
Maximum Humidity 79    
Minimum Humidity 54    
Precipitation  
Precipitation 0.00 in - - ()
Sea Level Pressure  
Sea Level Pressure 29.93 in    
Wind  
Wind Speed 13 mph (South)    
Max Wind Speed 16 mph    
Max Gust Speed 21 mph    
Visibility 10 miles    
Events      
Averages and records for this station are not official NWS values.
T = Trace of Precipitation, MM = Missing Value Source: NWS Daily Summary

Daily Weather History Graph

Daily Weather History Graph

Search for Another Location

Airport or City:

Astronomy

Aug. 20, 2019 Rise Set
Actual Time 6:48 AM CDT 8:16 PM CDT
Civil Twilight 6:20 AM CDT 8:43 PM CDT
Nautical Twilight 5:47 AM CDT 9:16 PM CDT
Astronomical Twilight 5:12 AM CDT 9:51 PM CDT
Moon 11:09 PM CDT 11:23 AM CDT
Length of Visible Light 14h 23m
Length of Day
13h 27m
Waning Gibbous, 77% of the Moon is Illuminated
Aug 20
Waning Gibbous
Aug 23
Last Quarter
Aug 30
New
Sep 5
First Quarter
Sep 13
Full

Hourly Weather History & Observations

Time (CDT) Temp. Heat Index Dew Point Humidity Pressure Visibility Wind Dir Wind Speed Gust Speed Precip Events Conditions
12:56 AM 81.0 °F 86.2 °F 73.9 °F 79% 29.92 in 10.0 mi South 12.7 mph - N/A   Unknown
1:56 AM 80.1 °F 84.2 °F 73.0 °F 79% 29.93 in 10.0 mi South 11.5 mph - N/A   Unknown
2:56 AM 80.1 °F 83.8 °F 72.0 °F 76% 29.94 in 10.0 mi South 11.5 mph - N/A   Unknown
3:56 AM 80.1 °F 83.6 °F 71.1 °F 74% 29.93 in 10.0 mi South 13.8 mph - N/A   Unknown
4:56 AM 80.1 °F 83.2 °F 70.0 °F 71% 29.93 in 10.0 mi SSW 12.7 mph - N/A   Unknown
5:56 AM 79.0 °F - 70.0 °F 74% 29.93 in 10.0 mi SSW 13.8 mph - N/A   Clear
6:56 AM 78.1 °F - 70.0 °F 76% 29.93 in 10.0 mi SSW 13.8 mph - N/A   Unknown
7:56 AM 78.1 °F - 70.0 °F 76% 29.96 in 10.0 mi South 9.2 mph - N/A   Clear
8:56 AM 81.0 °F 84.9 °F 71.1 °F 72% 29.96 in 10.0 mi South 10.4 mph - N/A   Clear
9:56 AM 84.9 °F 90.1 °F 71.1 °F 63% 29.95 in 10.0 mi SSW 15.0 mph - N/A   Clear
10:03 AM 84.2 °F 89.6 °F 71.6 °F 66% 30.01 in 10.0 mi SSW 15.0 mph - N/A   Partly Cloudy
10:56 AM 87.1 °F 94.5 °F 73.0 °F 63% 29.95 in 10.0 mi SSW 16.1 mph - N/A   Clear
12:56 PM 91.9 °F 103.2 °F 75.0 °F 58% 29.92 in 10.0 mi SSW 13.8 mph - N/A   Clear
1:56 PM 91.9 °F 103.9 °F 75.9 °F 59% 29.92 in 10.0 mi South 16.1 mph - N/A   Clear
2:56 PM 93.9 °F 105.4 °F 75.0 °F 54% 29.91 in 10.0 mi South 16.1 mph 20.7 mph N/A   Unknown
3:56 PM 93.0 °F 104.6 °F 75.0 °F 56% 29.89 in 10.0 mi South 15.0 mph - N/A   Unknown
4:07 PM 93.2 °F 107.2 °F 77.0 °F 59% 29.95 in 10.0 mi South 10.4 mph - N/A   Partly Cloudy
4:56 PM 93.9 °F 108.4 °F 77.0 °F 58% 29.88 in 10.0 mi SSE 13.8 mph - N/A   Clear
5:56 PM 91.9 °F 105.9 °F 77.0 °F 62% 29.88 in 10.0 mi SE 13.8 mph - N/A   Unknown
6:56 PM 90.0 °F 101.3 °F 75.9 °F 63% 29.88 in 10.0 mi SSE 15.0 mph - N/A   Unknown
7:56 PM 86.0 °F 96.0 °F 75.9 °F 72% 29.88 in 10.0 mi SSE 11.5 mph - N/A   Unknown
8:56 PM 84.0 °F 91.9 °F 75.0 °F 74% 29.90 in 10.0 mi SSE 11.5 mph - N/A   Unknown
9:56 PM 84.0 °F 91.9 °F 75.0 °F 74% 29.94 in 10.0 mi SSE 12.7 mph - N/A   Unknown
10:56 PM 82.9 °F 89.4 °F 73.9 °F 74% 29.93 in 10.0 mi SSE 13.8 mph - N/A   Unknown
11:56 PM 82.0 °F 87.4 °F 73.0 °F 74% 29.94 in 10.0 mi South 10.4 mph - N/A   Unknown